CW7218 Weather Reports


time (UTC)temp
C
wind
direction
speed
KPH
gust
KPH
rain 1hr
cm
rain 24hr
cm
rain mn
cm
humidity
%
barometer
mb
20260504081017 12 203 6.4 11.3 0.00 0.23 0.23 89 1012.0
20260504050017 11 113 1.6 3.2 0.00 0.00 0.00 90 1012.3
20260504045017 11 135 1.6 3.2 0.00 0.00 0.00 90 1012.2
20260504044016 11 0.0 0.0 0.00 0.00 0.00 90 1012.2
20260504043016 11 0.0 3.2 0.00 0.00 0.00 90 1012.3
20260504042016 11 135 1.6 6.4 0.00 0.03 0.00 89 1012.2
20260504041016 11 68 1.6 3.2 0.00 0.03 0.00 89 1012.2
20260504040016 11 0.0 0.0 0.00 0.03 0.00 89 1012.3
20260504035036 11 0.0 3.2 0.00 0.03 0.00 88 1012.1
20260504034016 11 158 1.6 4.8 0.00 0.03 0.00 88 1012.2
20260504033016 11 158 1.6 4.8 0.00 0.05 0.00 88 1012.2
20260504032016 11 158 1.6 4.8 0.00 0.05 0.00 88 1012.3
20260504031016 11 113 1.6 3.2 0.00 0.05 0.00 88 1012.3
20260504030056 11 68 1.6 4.8 0.00 0.05 0.00 88 1012.4
20260504025016 11 0.0 3.2 0.00 0.05 0.00 88 1012.4
20260504024016 11 0.0 4.8 0.00 0.05 0.00 87 1012.3
20260504023036 11 45 1.6 4.8 0.00 0.05 0.00 87 1012.4
20260504022016 11 68 3.2 8.0 0.00 0.05 0.00 88 1012.4
20260504021016 12 90 4.8 8.0 0.00 0.05 0.00 87 1012.6
20260504020036 12 113 1.6 8.0 0.00 0.05 0.00 86 1012.7
20260504015016 12 0.0 3.2 0.00 0.05 0.00 85 1012.8
20260504014016 12 113 1.6 3.2 0.00 0.05 0.00 86 1013.1
20260504013016 12 45 1.6 3.2 0.00 0.05 0.00 86 1013.1
20260504012016 12 0.0 3.2 0.00 0.05 0.00 86 1013.4
20260504011036 12 248 1.6 3.2 0.00 0.05 0.00 86 1013.5
20260504010036 12 248 3.2 4.8 0.00 0.05 0.00 86 1013.6
20260504005036 12 248 3.2 8.0 0.00 0.05 0.00 86 1013.6
20260504004016 12 293 3.2 4.8 0.00 0.05 0.00 86 1013.6
20260504003018 12 203 3.2 6.4 0.00 0.05 0.00 86 1013.4
20260504002017 12 225 3.2 6.4 0.00 0.05 0.00 85 1013.3
20260504001018 12 270 4.8 8.0 0.00 0.05 0.00 85 1013.4
20260504000016 12 248 4.8 6.4 0.00 0.05 0.05 85 1013.2
20260503235016 12 0.0 3.2 0.00 0.05 0.05 84 1013.2
20260503234016 12 180 3.2 8.0 0.00 0.05 0.05 85 1013.2
20260503233016 12 248 1.6 9.7 0.00 0.08 0.05 83 1013.3
20260503232016 12 270 3.2 6.4 0.00 0.08 0.05 83 1013.4
20260503231036 12 293 4.8 9.7 0.00 0.08 0.05 84 1013.4
20260503230018 12 0 4.8 9.7 0.00 0.08 0.05 83 1013.3
20260503225018 12 68 8.0 14.5 0.00 0.08 0.05 83 1013.3
20260503224038 12 68 9.7 17.7 0.00 0.08 0.05 83 1013.4
20260503223017 12 45 11.3 20.9 0.00 0.08 0.05 84 1013.5
20260503222037 12 45 9.7 16.1 0.00 0.08 0.05 84 1013.4
20260503221017 12 90 3.2 9.7 0.00 0.08 0.05 84 1013.6
20260503220017 12 270 3.2 6.4 0.00 0.08 0.05 85 1013.9
20260503215037 12 270 4.8 8.0 0.00 0.08 0.05 84 1014.0
20260503214018 12 248 4.8 11.3 0.00 0.08 0.05 84 1014.1
20260503213017 12 180 4.8 8.0 0.00 0.08 0.05 84 1014.1
20260503212018 12 180 3.2 8.0 0.00 0.08 0.05 85 1014.1
20260503211017 12 180 3.2 6.4 0.00 0.08 0.05 85 1014.1
20260503210018 12 180 4.8 8.0 0.00 0.08 0.05 85 1013.9
20260503205017 12 158 4.8 9.7 0.00 0.08 0.05 85 1013.8
20260503204017 12 180 4.8 8.0 0.00 0.08 0.05 85 1013.8
20260503203017 12 180 6.4 11.3 0.00 0.08 0.05 85 1013.8
20260503202017 12 180 6.4 11.3 0.00 0.08 0.05 86 1013.8
20260503201038 12 180 8.0 14.5 0.00 0.08 0.05 85 1013.8
20260503200017 12 180 6.4 11.3 0.00 0.08 0.05 83 1013.5
20260503195037 12 203 6.4 11.3 0.00 0.08 0.05 81 1013.3
20260503194017 12 203 6.4 11.3 0.00 0.08 0.05 81 1013.2
20260503193037 12 180 4.8 9.7 0.00 0.08 0.05 79 1013.1
20260503192117 13 203 6.4 11.3 0.00 0.08 0.05 79 1013.0
20260503191017 13 180 6.4 11.3 0.00 0.08 0.05 78 1013.0
20260503190017 13 203 8.0 12.9 0.00 0.08 0.05 76 1012.8
20260503185037 13 203 6.4 9.7 0.00 0.08 0.05 75 1012.7
20260503184017 13 180 6.4 11.3 0.00 0.08 0.05 73 1012.7
20260503183017 13 248 8.0 19.3 0.00 0.08 0.05 70 1012.6
20260503182017 13 203 8.0 16.1 0.00 0.08 0.05 68 1012.5
20260503181017 13 203 12.9 22.5 0.00 0.08 0.05 68 1012.4
20260503180037 14 180 8.0 20.9 0.00 0.08 0.05 68 1012.4
20260503175017 14 203 8.0 11.3 0.00 0.08 0.05 70 1012.4
20260503174017 15 203 6.4 11.3 0.00 0.08 0.05 70 1012.5
20260503173017 15 203 6.4 11.3 0.00 0.08 0.05 70 1012.6
20260503172017 15 180 4.8 11.3 0.00 0.08 0.05 70 1012.4
20260503171017 15 180 6.4 11.3 0.00 0.08 0.05 69 1012.4
20260503131036 17 180 8.0 17.7 0.00 0.08 0.05 65 1014.2